SHIYAN 12 01 (SY-12 01)

Last updated on Tue Oct 15 2024 00:02:42 GMT+0000 (Coordinated Universal Time)

1 50321U 21129A 24288.73313219 -.00000174 00000+0 00000+0 0 9990 2 50321 2.0889 88.8379 0001325 264.4562 90.9432 1.00113165 10391
UTC large
Height (km)
Speed (km/s)
/
Latitude / Longitude
Inclination (degrees)
Orbital Period (minutes)
Azimuth
Elevation
Range (km)
Doppler Factor

Next 0 passes for location: London (51.5072 / 0.1276)

Sorry there are no passes over London.